This is the latest recevied weather packets stored in our database for station/object KD2SIG. If no packets are shown the sender has not sent any weather packets the latest 10 day(s).
| Time | Temp. | Humidity | Pressure | Rain* | Wind** | Luminosity | Snow |
|---|---|---|---|---|---|---|---|
| 1777534601 | 7.22° C | 98% | 1006.3 hPa | 1.27 mm | - | 0 W/m² | - |
| 1777534299 | 7.22° C | 98% | 1006.4 hPa | 0 mm | - | 0 W/m² | - |
| 1777533997 | 7.22° C | 98% | 1006.4 hPa | 0 mm | - | 0 W/m² | - |
| 1777533693 | 7.22° C | 98% | 1006.3 hPa | 0 mm | - | 0 W/m² | - |
| 1777533390 | 7.22° C | 98% | 1006.2 hPa | 0 mm | - | 0 W/m² | - |
| 1777533086 | 7.22° C | 98% | 1006.2 hPa | 0 mm | - | 0 W/m² | - |
| 1777532783 | 7.22° C | 98% | 1006.1 hPa | 0 mm | - | 0 W/m² | - |
| 1777532479 | 7.78° C | 98% | 1006 hPa | 0 mm | - | 0 W/m² | - |
| 1777532176 | 7.78° C | 98% | 1005.8 hPa | 1.78 mm | - | 0 W/m² | - |
| 1777531872 | 7.78° C | 98% | 1006.3 hPa | 1.78 mm | - | 0 W/m² | - |
| 1777531568 | 7.78° C | 98% | 1006 hPa | 0 mm | - | 0 W/m² | - |
| 1777531266 | 7.78° C | 98% | 1006 hPa | 1.27 mm | - | 0 W/m² | - |
| 1777530964 | 7.78° C | 98% | 1005.9 hPa | 1.27 mm | - | 0 W/m² | - |
| 1777530661 | 7.78° C | 98% | 1005.8 hPa | 0 mm | - | 0 W/m² | - |
| 1777530358 | 8.33° C | 98% | 1005.7 hPa | 0 mm | - | 0 W/m² | - |
| 1777530054 | 8.33° C | 98% | 1005.6 hPa | 0 mm | - | 0 W/m² | - |
| 1777529751 | 8.33° C | 98% | 1005.4 hPa | 1.78 mm | - | 0 W/m² | - |
| 1777529448 | 8.33° C | 98% | 1005.4 hPa | 1.78 mm | - | 0 W/m² | - |
| 1777529145 | 8.33° C | 98% | 1005.3 hPa | 0 mm | - | 0 W/m² | - |
| 1777528840 | 8.33° C | 98% | 1005.4 hPa | 1.27 mm | - | 0 W/m² | - |
| 1777528537 | 8.33° C | 98% | 1005.1 hPa | 3.05 mm | - | 0 W/m² | - |
| 1777528235 | 8.33° C | 98% | 1005.3 hPa | 3.05 mm | - | 0 W/m² | - |
| 1777527933 | 8.33° C | 98% | 1005.3 hPa | 1.27 mm | - | 0 W/m² | - |
| 1777527628 | 8.89° C | 98% | 1005.3 hPa | 0 mm | - | 0 W/m² | - |
| 1777527324 | 8.89° C | 98% | 1005.4 hPa | 1.78 mm | - | 0 W/m² | - |
* Rain latest hour (hover to see other rain measurements)
** Current wind speed in m/s (hover to see current wind gust speed)